AL YAH 3

Last updated on Tue Jun 17 2025 00:02:47 GMT+0000 (Coordinated Universal Time)

1 43174U 18012A 25167.42946843 -.00000144 00000+0 00000+0 0 9990 2 43174 0.6046 87.9551 0004167 350.5252 320.9787 1.00270647 27172
UTC large
Height (km)
Speed (km/s)
/
Latitude / Longitude
Inclination (degrees)
Orbital Period (minutes)
Azimuth
Elevation
Range (km)
Doppler Factor

Next 0 passes for location: London (51.5072 / 0.1276)

Sorry there are no passes over London.